Location: Bocchiglicro
(39.4167°N, 16.7500°E)
Time: 20:20:57
(UTC+00:00)

SL-19 R/B - Pass Details

Date: 07 June 2020
Orbit: 358 x 811 km, 99.4° (Epoch: 11 July)

Event Time Altitude Azimuth Distance (km) Brightness Sun altitude
Rises 01:52:34 0° 12° (NNE) 2,920 9.1 -14.9°
Reaches altitude 10° 01:54:55 10° 10° (N) 1,930 8.0 -14.5°
Maximum altitude 01:59:03 71° 287° (WNW) 565 4.2 -14.0°
Enters shadow 02:01:13 23° 207° (SSW) 1,107 5.3 -13.7°
